Location: Boiro
(42.6475°N, 8.8834°W)
Time: 03:43:14
(UTC+01:00)

Vanguard 1 Rocket - Pass Details

Date: 06 December 2021
Orbit: 651 x 4224 km, 34.3° (Epoch: 21 January)

Event Time Altitude Azimuth Distance (km) Brightness Sun altitude
Rises 12:02:48 0° 275° (W) 7,720 11.9 22.0°
Reaches altitude 10° 12:12:51 10° 254° (WSW) 7,215 12.0 22.6°
Maximum altitude 12:22:04 13° 232° (SW) 7,115 12.3 23.1°
Drops below altitude 10° 12:31:34 10° 209° (SSW) 7,339 12.8 23.6°
Sets 12:42:30 0° 187° (S) 7,929 13.4 24.0°
